Notices

What's New in latest Release from April 7th, 2021:

- Updated Glossary, including Speed of Maximum Gust, and Total Hourly Precipitation

- Updated national and regional climate services offices contacts and prices information

- Addition of station inventory lists for 1981-2010, 1971-2000, and 1961-1990 Normals.

If you haven't already, please take our survey and provide feedback about our website: https://eccc.sondage-survey.ca/f/LanguageSelection.aspx?s=442ca660-fcf1-47c0-95a9-59707d6fd709

Hourly Data Report for March 26, 2017

MIRAMICHI RCS
NEW BRUNSWICK

47°00'34.000" N
65°27'54.000" W
33.00 m
8100989
71744
ACQ

Download Data

Hourly Data (March 2017)
Hourly Data Report for March 26, 2017
TIME
LST
Temp Definition
°C
Dew Point Definition
°C
Rel Hum Definition
%
Precip. Amount Definition
mm

Wind Dir Definition
10's deg

Wind Spd Definition
km/h
Visibility Definition
km
Stn Press Definition
kPa
Hmdx Definition


Wind Chill Definition


Weather Definition


00:00 -6.1 -19.2 35 0.0 31 10   102.43   -11 LegendNANA
01:00 -6.8 -19.5 36 0.0 31 10   102.49   -11 LegendNANA
02:00 -7.7 -19.4 39 0.0 30 9   102.52   -12 LegendNANA
03:00 -8.1 -19.6 39 0.0 31 9   102.56   -13 LegendNANA
04:00 -8.7 -19.4 42 0.0 33 11   102.60   -14 LegendNANA
05:00 -9.5 -19.5 44 0.0 32 6   102.65   -13 LegendNANA
06:00 -10.3 -19.3 48 0.0 30 11   102.74   -16 LegendNANA
07:00 -10.6 -18.9 50 0.0 29 9   102.86   -16 LegendNANA
08:00 -9.7 -18.9 47 0.0 29 15   102.92   -16 LegendNANA
09:00 -8.3 -19.8 39 0.0 31 14   102.93   -14 LegendNANA
10:00 -6.4 -20.0 33 0.0 29 13   102.94   -12 LegendNANA
11:00 -4.2 -19.7 29 0.0 30 12   102.88   -9 LegendNANA
12:00 -2.8 -18.3 29 0.0 29 15   102.82   -8 LegendNANA
13:00 -1.0 -20.5 21 0.0 32 11   102.72   -5 LegendNANA
14:00 -0.1 -18.3 24 0.0 31 15   102.63   -5 LegendNANA
15:00 0.9 -20.3 19 0.0 30 13   102.57     LegendNANA
16:00 1.5 -18.9 20 0.0 31 12   102.56     LegendNANA
17:00 1.9 -18.5 20 0.0 30 9   102.53     LegendNANA
18:00 1.2 -19.1 20 0.0 30 9   102.58     LegendNANA
19:00 -0.5 -19.3 23 0.0 32 4   102.59   -2 LegendNANA
20:00 -2.8 -17.0 33 0.0 28 6   102.63   -5 LegendNANA
21:00 -4.9 -13.6 51 0.0 30 3   102.65   -6 LegendNANA
22:00 -6.7 -13.9 57 0.0 31 3   102.67   -8 LegendNANA
23:00 -7.0 -15.6 50 0.0 1 2   102.73   -8 LegendNANA

Notes on Data Quality.

Legend

  • E = Estimated
  • M = Missing
  • NA = Not Available*
  • [empty] = Indicates an unobserved value
Date modified: